| time (UTC) | temp C | wind direction | speed KPH | gust KPH | rain 1hr cm | rain 24hr cm | rain mn cm | humidity % | barometer mb |
| 20260506092205 | 8 | 45 | 1.6 | 3.2 | 0.00 | 0.00 | 0.00 | 82 | 1014.2 |
| 20260506091703 | 8 | 337 | 4.8 | 4.8 | 0.00 | 0.00 | 0.00 | 81 | 1014.2 |
| 20260506091200 | 8 | 45 | 3.2 | 3.2 | 0.00 | 0.00 | 0.00 | 81 | 1014.5 |
| 20260506090658 | 8 | 230 | 4.8 | 4.8 | 0.00 | 0.00 | 0.00 | 81 | 1014.3 |
| 20260506090154 | 8 | 122 | 1.6 | 3.2 | 0.00 | 0.00 | 0.00 | 81 | 1013.9 |
| 20260506085651 | 8 | 225 | 3.2 | 4.8 | 0.00 | 0.00 | 0.00 | 80 | 1013.8 |
| 20260506085147 | 8 | 93 | 8.0 | 11.3 | 0.00 | 0.00 | 0.00 | 81 | 1014.2 |
| 20260506084644 | 8 | 342 | 3.2 | 3.2 | 0.00 | 0.00 | 0.00 | 80 | 1013.8 |
| 20260506084141 | 8 | 25 | 8.0 | 12.9 | 0.00 | 0.00 | 0.00 | 80 | 1013.9 |
| 20260506083638 | 8 | 22 | 6.4 | 9.7 | 0.00 | 0.00 | 0.00 | 80 | 1013.9 |
| 20260506083136 | 8 | 41 | 6.4 | 14.5 | 0.00 | 0.00 | 0.00 | 80 | 1013.7 |
| 20260506082632 | 8 | 81 | 9.7 | 11.3 | 0.00 | 0.00 | 0.00 | 80 | 1013.6 |
| 20260506082128 | 8 | 45 | 6.4 | 9.7 | 0.00 | 0.00 | 0.00 | 81 | 1013.3 |
| 20260506081626 | 8 | 216 | 4.8 | 6.4 | 0.00 | 0.00 | 0.00 | 81 | 1013.2 |
| 20260506081124 | 8 | 237 | 6.4 | 9.7 | 0.00 | 0.00 | 0.00 | 81 | 1013.0 |
| 20260506080621 | 8 | 40 | 4.8 | 6.4 | 0.00 | 0.00 | 0.00 | 81 | 1013.0 |
| 20260506080117 | 8 | 13 | 9.7 | 11.3 | 0.00 | 0.00 | 0.00 | 81 | 1012.9 |
| 20260506073101 | 8 | 129 | 3.2 | 4.8 | 0.00 | 0.00 | 0.00 | 81 | 1012.6 |
| 20260506072558 | 8 | 92 | 4.8 | 6.4 | 0.00 | 0.00 | 0.00 | 80 | 1012.7 |
| 20260506072056 | 8 | 31 | 4.8 | 6.4 | 0.00 | 0.00 | 0.00 | 80 | 1012.6 |
| 20260506071553 | 8 | 80 | 4.8 | 4.8 | 0.00 | 0.00 | 0.00 | 80 | 1012.5 |
| 20260506071051 | 8 | 305 | 6.4 | 9.7 | 0.00 | 0.00 | 0.00 | 79 | 1012.6 |
| 20260506070548 | 8 | 76 | 9.7 | 14.5 | 0.00 | 0.00 | 0.00 | 79 | 1012.5 |
| 20260506062022 | 8 | 238 | 3.2 | 3.2 | 0.00 | 0.00 | 0.00 | 77 | 1013.1 |
| 20260506061518 | 8 | 33 | 6.4 | 9.7 | 0.00 | 0.00 | 0.00 | 77 | 1012.8 |
| 20260506061016 | 8 | 203 | 3.2 | 3.2 | 0.00 | 0.00 | 0.00 | 77 | 1012.8 |
| 20260506060514 | 8 | 242 | 4.8 | 4.8 | 0.00 | 0.00 | 0.00 | 77 | 1012.7 |
| 20260506050943 | 8 | 16 | 8.0 | 12.9 | 0.00 | 0.00 | 0.00 | 79 | 1012.5 |
| 20260506050440 | 8 | 96 | 6.4 | 9.7 | 0.00 | 0.00 | 0.00 | 79 | 1012.4 |
| 20260506044930 | 8 | 136 | 8.0 | 11.3 | 0.00 | 0.00 | 0.00 | 80 | 1012.8 |
| 20260506044429 | 8 | 57 | 6.4 | 9.7 | 0.00 | 0.00 | 0.00 | 80 | 1012.8 |
| 20260506043925 | 8 | 111 | 3.2 | 4.8 | 0.00 | 0.00 | 0.00 | 82 | 1012.8 |
| 20260506043423 | 8 | 183 | 4.8 | 6.4 | 0.00 | 0.00 | 0.00 | 82 | 1012.7 |
| 20260506042920 | 8 | 229 | 3.2 | 4.8 | 0.00 | 0.00 | 0.00 | 82 | 1012.8 |
| 20260506042420 | 8 | 38 | 8.0 | 11.3 | 0.00 | 0.00 | 0.00 | 83 | 1012.6 |
| 20260506041918 | 8 | 145 | 3.2 | 3.2 | 0.00 | 0.00 | 0.00 | 83 | 1012.6 |
| 20260506041415 | 8 | 33 | 6.4 | 6.4 | 0.00 | 0.00 | 0.00 | 83 | 1012.6 |
| 20260506040912 | 8 | 81 | 8.0 | 11.3 | 0.00 | 0.00 | 0.00 | 83 | 1012.7 |
| 20260506040409 | 8 | 107 | 4.8 | 6.4 | 0.00 | 0.00 | 0.00 | 84 | 1012.8 |
| 20260506035905 | 8 | 30 | 4.8 | 11.3 | 0.00 | 0.00 | 0.00 | 84 | 1012.8 |
| 20260506035403 | 8 | 215 | 1.6 | 1.6 | 0.00 | 0.00 | 0.00 | 84 | 1012.7 |
| 20260506034859 | 8 | 341 | 4.8 | 9.7 | 0.00 | 0.00 | 0.00 | 85 | 1012.8 |
| 20260506034358 | 8 | 52 | 9.7 | 11.3 | 0.00 | 0.00 | 0.00 | 84 | 1012.6 |
| 20260506033854 | 8 | 66 | 4.8 | 9.7 | 0.00 | 0.00 | 0.00 | 85 | 1012.7 |
| 20260506033351 | 8 | 92 | 17.7 | 22.5 | 0.00 | 0.00 | 0.00 | 85 | 1012.2 |
| 20260506032848 | 8 | 252 | 8.0 | 12.9 | 0.00 | 0.00 | 0.00 | 85 | 1012.3 |
| 20260506032344 | 8 | 181 | 3.2 | 4.8 | 0.00 | 0.00 | 0.00 | 86 | 1012.0 |
| 20260506031841 | 8 | 199 | 4.8 | 6.4 | 0.00 | 0.00 | 0.00 | 86 | 1011.9 |
| 20260506031339 | 8 | 280 | 11.3 | 20.9 | 0.00 | 0.00 | 0.00 | 87 | 1011.6 |
| 20260506030836 | 8 | 37 | 9.7 | 12.9 | 0.00 | 0.00 | 0.00 | 87 | 1011.3 |
| 20260506030334 | 8 | 299 | 11.3 | 16.1 | 0.00 | 0.00 | 0.00 | 87 | 1011.7 |
| 20260506025831 | 8 | 77 | 6.4 | 11.3 | 0.00 | 0.00 | 0.00 | 88 | 1011.8 |
| 20260506025327 | 8 | 76 | 14.5 | 20.9 | 0.00 | 0.00 | 0.00 | 89 | 1011.8 |
| 20260506024824 | 8 | 60 | 6.4 | 9.7 | 0.00 | 0.00 | 0.00 | 90 | 1012.1 |
| 20260506024321 | 8 | 5 | 9.7 | 14.5 | 0.00 | 0.00 | 0.00 | 90 | 1011.7 |
| 20260506023817 | 8 | 52 | 11.3 | 12.9 | 0.00 | 0.00 | 0.00 | 90 | 1011.7 |
| 20260506023314 | 8 | 8 | 8.0 | 12.9 | 0.00 | 0.00 | 0.00 | 90 | 1011.8 |
| 20260506022811 | 8 | 231 | 3.2 | 3.2 | 0.00 | 0.00 | 0.00 | 89 | 1011.9 |
| 20260506022309 | 8 | 34 | 6.4 | 9.7 | 0.00 | 0.00 | 0.00 | 88 | 1011.8 |
| 20260506021807 | 8 | 72 | 4.8 | 6.4 | 0.00 | 0.00 | 0.00 | 87 | 1011.9 |
| 20260506021303 | 8 | 47 | 9.7 | 14.5 | 0.00 | 0.00 | 0.00 | 87 | 1011.6 |
| 20260506020800 | 8 | 166 | 6.4 | 11.3 | 0.00 | 0.00 | 0.00 | 87 | 1011.7 |
| 20260506020258 | 9 | 255 | 6.4 | 9.7 | 0.00 | 0.00 | 0.00 | 87 | 1011.7 |
| 20260506015755 | 9 | 120 | 8.0 | 12.9 | 0.00 | 0.00 | 0.00 | 86 | 1011.5 |
| 20260506015252 | 9 | 300 | 6.4 | 9.7 | 0.00 | 0.00 | 0.00 | 86 | 1011.4 |
| 20260506014749 | 9 | 315 | 6.4 | 9.7 | 0.00 | 0.00 | 0.00 | 86 | 1011.4 |
| 20260506014246 | 9 | 43 | 6.4 | 11.3 | 0.00 | 0.00 | 0.00 | 85 | 1011.2 |
| 20260506013743 | 9 | 135 | 6.4 | 11.3 | 0.00 | 0.00 | 0.00 | 85 | 1010.9 |
| 20260506013240 | 9 | 34 | 4.8 | 6.4 | 0.00 | 0.00 | 0.00 | 86 | 1011.0 |
| 20260506012736 | 9 | 75 | 1.6 | 3.2 | 0.00 | 0.00 | 0.00 | 85 | 1011.2 |
| 20260506012233 | 9 | 246 | 3.2 | 3.2 | 0.00 | 0.00 | 0.00 | 85 | 1010.9 |
| 20260506011731 | 9 | 59 | 4.8 | 6.4 | 0.00 | 0.00 | 0.00 | 86 | 1011.0 |
| 20260506011227 | 9 | 274 | 1.6 | 3.2 | 0.00 | 0.00 | 0.00 | 86 | 1010.8 |
| 20260506010725 | 9 | 42 | 4.8 | 6.4 | 0.00 | 0.00 | 0.00 | 86 | 1010.6 |
| 20260506010222 | 9 | 172 | 6.4 | 9.7 | 0.00 | 0.00 | 0.00 | 86 | 1010.6 |
| 20260506005720 | 9 | 92 | 6.4 | 11.3 | 0.00 | 0.00 | 0.00 | 86 | 1010.4 |
| 20260506005216 | 9 | 217 | 3.2 | 4.8 | 0.00 | 0.00 | 0.00 | 85 | 1010.4 |
| 20260506004712 | 9 | 36 | 6.4 | 11.3 | 0.00 | 0.00 | 0.00 | 85 | 1010.1 |
| 20260506004210 | 9 | 56 | 9.7 | 11.3 | 0.00 | 0.00 | 0.00 | 85 | 1009.8 |
| 20260506003705 | 9 | 334 | 6.4 | 9.7 | 0.00 | 0.00 | 0.00 | 85 | 1009.8 |
| 20260506003202 | 10 | 61 | 6.4 | 9.7 | 0.00 | 0.00 | 0.00 | 84 | 1009.9 |
| 20260506002658 | 10 | 224 | 6.4 | 12.9 | 0.00 | 0.00 | 0.00 | 84 | 1010.1 |
| 20260506002154 | 10 | 55 | 6.4 | 6.4 | 0.00 | 0.00 | 0.00 | 83 | 1009.8 |
| 20260506001650 | 10 | 56 | 14.5 | 17.7 | 0.00 | 0.00 | 0.00 | 83 | 1009.9 |
| 20260506001148 | 10 | 258 | 8.0 | 9.7 | 0.00 | 0.00 | 0.00 | 82 | 1009.8 |
| 20260506000645 | 10 | 301 | 6.4 | 9.7 | 0.00 | 0.00 | 0.00 | 82 | 1009.8 |
| 20260506000142 | 10 | 244 | 4.8 | 4.8 | 0.00 | 0.00 | 0.00 | 82 | 1009.7 |
| 20260505235640 | 10 | 71 | 6.4 | 9.7 | 0.00 | 0.00 | 0.00 | 81 | 1009.8 |
| 20260505235137 | 10 | 334 | 4.8 | 6.4 | 0.00 | 0.00 | 0.00 | 81 | 1009.5 |
| 20260505234634 | 10 | 182 | 1.6 | 4.8 | 0.00 | 0.00 | 0.00 | 81 | 1009.5 |
| 20260505234130 | 10 | 345 | 8.0 | 11.3 | 0.00 | 0.00 | 0.00 | 80 | 1009.6 |
| 20260505233628 | 10 | 16 | 4.8 | 6.4 | 0.00 | 0.00 | 0.00 | 80 | 1010.1 |
| 20260505233125 | 10 | 19 | 3.2 | 4.8 | 0.00 | 0.00 | 0.00 | 80 | 1010.1 |
| 20260505232623 | 10 | 255 | 6.4 | 11.3 | 0.00 | 0.00 | 0.00 | 79 | 1010.1 |
| 20260505232120 | 10 | 84 | 8.0 | 14.5 | 0.00 | 0.00 | 0.00 | 79 | 1010.1 |
| 20260505231617 | 11 | 295 | 9.7 | 12.9 | 0.00 | 0.00 | 0.00 | 79 | 1010.0 |
| 20260505231116 | 11 | 144 | 6.4 | 6.4 | 0.00 | 0.00 | 0.00 | 80 | 1009.8 |
| 20260505230613 | 11 | 236 | 6.4 | 9.7 | 0.00 | 0.00 | 0.00 | 80 | 1009.6 |
| 20260505230109 | 11 | 178 | 4.8 | 12.9 | 0.00 | 0.00 | 0.00 | 80 | 1009.4 |
| 20260505225606 | 11 | 228 | 4.8 | 4.8 | 0.00 | 0.00 | 0.00 | 81 | 1009.2 |
| 20260505225102 | 11 | 358 | 6.4 | 11.3 | 0.00 | 0.00 | 0.00 | 81 | 1009.7 |
| 20260505224559 | 11 | 356 | 12.9 | 17.7 | 0.00 | 0.00 | 0.00 | 80 | 1009.6 |
| 20260505224056 | 11 | 240 | 4.8 | 6.4 | 0.00 | 0.00 | 0.00 | 81 | 1009.4 |
| 20260505223554 | 11 | 357 | 4.8 | 6.4 | 0.00 | 0.00 | 0.00 | 80 | 1009.4 |
| 20260505223049 | 11 | 4 | 11.3 | 14.5 | 0.00 | 0.00 | 0.00 | 80 | 1009.3 |
| 20260505222546 | 11 | 243 | 4.8 | 4.8 | 0.00 | 0.00 | 0.00 | 80 | 1009.1 |
| 20260505222042 | 11 | 220 | 1.6 | 1.6 | 0.00 | 0.00 | 0.00 | 81 | 1009.1 |
| 20260505221539 | 11 | 6 | 4.8 | 6.4 | 0.00 | 0.00 | 0.00 | 80 | 1009.2 |
| 20260505221036 | 11 | 36 | 8.0 | 14.5 | 0.00 | 0.00 | 0.00 | 80 | 1008.8 |
| 20260505220533 | 11 | 255 | 6.4 | 9.7 | 0.00 | 0.00 | 0.00 | 80 | 1009.1 |
| 20260505220031 | 11 | 23 | 4.8 | 9.7 | 0.00 | 0.00 | 0.00 | 80 | 1008.7 |
| 20260505215529 | 11 | 66 | 3.2 | 4.8 | 0.00 | 0.00 | 0.00 | 81 | 1008.7 |
| 20260505215026 | 11 | 345 | 8.0 | 11.3 | 0.00 | 0.00 | 0.00 | 80 | 1009.0 |
| 20260505214524 | 11 | 359 | 12.9 | 17.7 | 0.00 | 0.00 | 0.00 | 80 | 1008.6 |
| 20260505214021 | 11 | 277 | 6.4 | 9.7 | 0.00 | 0.00 | 0.00 | 80 | 1008.6 |
| 20260505213519 | 11 | 317 | 4.8 | 4.8 | 0.00 | 0.00 | 0.00 | 79 | 1008.6 |
| 20260505213015 | 11 | 334 | 6.4 | 9.7 | 0.00 | 0.00 | 0.00 | 80 | 1008.7 |
| 20260505212511 | 11 | 300 | 4.8 | 4.8 | 0.00 | 0.00 | 0.00 | 80 | 1008.5 |
| 20260505212009 | 11 | 31 | 9.7 | 14.5 | 0.00 | 0.00 | 0.00 | 80 | 1008.5 |
| 20260505211506 | 11 | 350 | 9.7 | 17.7 | 0.00 | 0.00 | 0.00 | 79 | 1007.7 |
| 20260505211002 | 12 | 42 | 12.9 | 24.1 | 0.00 | 0.00 | 0.00 | 79 | 1007.5 |
| 20260505210459 | 12 | 230 | 1.6 | 1.6 | 0.00 | 0.00 | 0.00 | 79 | 1008.1 |
| 20260505205955 | 12 | 69 | 3.2 | 3.2 | 0.00 | 0.00 | 0.00 | 80 | 1007.7 |
| 20260505205454 | 12 | 359 | 4.8 | 6.4 | 0.00 | 0.00 | 0.00 | 80 | 1008.4 |
| 20260505204950 | 12 | 237 | 4.8 | 6.4 | 0.00 | 0.00 | 0.00 | 80 | 1008.4 |
| 20260505204449 | 11 | 195 | 4.8 | 6.4 | 0.00 | 0.00 | 0.00 | 80 | 1008.5 |
| 20260505203946 | 11 | 332 | 4.8 | 6.4 | 0.00 | 0.00 | 0.00 | 81 | 1008.8 |
| 20260505203442 | 11 | 257 | 6.4 | 9.7 | 0.00 | 0.00 | 0.00 | 81 | 1008.9 |
| 20260505202938 | 11 | 154 | 6.4 | 9.7 | 0.00 | 0.00 | 0.00 | 81 | 1008.2 |
| 20260505202435 | 11 | 62 | 6.4 | 9.7 | 0.00 | 0.00 | 0.00 | 81 | 1008.4 |
| 20260505201931 | 12 | 42 | 14.5 | 22.5 | 0.00 | 0.00 | 0.00 | 81 | 1008.4 |
| 20260505201428 | 12 | 173 | 6.4 | 9.7 | 0.00 | 0.00 | 0.00 | 82 | 1007.9 |
| 20260505200926 | 11 | 55 | 11.3 | 14.5 | 0.00 | 0.00 | 0.00 | 83 | 1007.7 |
| 20260505200423 | 12 | 271 | 6.4 | 9.7 | 0.00 | 0.00 | 0.00 | 83 | 1008.1 |
| 20260505195919 | 12 | 30 | 8.0 | 11.3 | 0.00 | 0.00 | 0.00 | 83 | 1008.1 |
| 20260505195416 | 12 | 274 | 6.4 | 6.4 | 0.00 | 0.00 | 0.00 | 85 | 1007.8 |
| 20260505194913 | 11 | 184 | 11.3 | 16.1 | 0.00 | 0.00 | 0.00 | 85 | 1007.7 |
| 20260505194411 | 12 | 57 | 8.0 | 14.5 | 0.00 | 0.00 | 0.00 | 85 | 1007.9 |
| 20260505193911 | 12 | 61 | 9.7 | 14.5 | 0.00 | 0.00 | 0.00 | 85 | 1007.4 |
| 20260505193409 | 12 | 315 | 11.3 | 14.5 | 0.00 | 0.00 | 0.00 | 85 | 1008.1 |
| 20260505192907 | 12 | 270 | 11.3 | 16.1 | 0.00 | 0.00 | 0.00 | 85 | 1007.9 |
| 20260505192405 | 12 | 35 | 11.3 | 14.5 | 0.00 | 0.00 | 0.00 | 85 | 1007.7 |
| 20260505191902 | 12 | 14 | 11.3 | 14.5 | 0.00 | 0.00 | 0.00 | 85 | 1007.7 |
| 20260505191400 | 12 | 216 | 4.8 | 6.4 | 0.00 | 0.00 | 0.00 | 85 | 1007.5 |
| 20260505190857 | 12 | 253 | 8.0 | 11.3 | 0.00 | 0.00 | 0.00 | 85 | 1007.5 |
| 20260505190352 | 13 | 281 | 8.0 | 9.7 | 0.00 | 0.00 | 0.00 | 84 | 1007.4 |
| 20260505185848 | 12 | 239 | 3.2 | 4.8 | 0.00 | 0.00 | 0.00 | 85 | 1007.5 |
| 20260505185345 | 12 | 253 | 4.8 | 6.4 | 0.00 | 0.00 | 0.00 | 85 | 1007.5 |
| 20260505184841 | 12 | 24 | 8.0 | 12.9 | 0.00 | 0.00 | 0.00 | 84 | 1007.4 |
| 20260505184338 | 13 | 318 | 9.7 | 16.1 | 0.00 | 0.00 | 0.00 | 84 | 1007.5 |
| 20260505183835 | 13 | 81 | 6.4 | 11.3 | 0.00 | 0.00 | 0.00 | 85 | 1007.5 |
| 20260505183332 | 13 | 268 | 6.4 | 6.4 | 0.00 | 0.00 | 0.00 | 85 | 1007.4 |
| 20260505182829 | 13 | 23 | 9.7 | 14.5 | 0.00 | 0.00 | 0.00 | 85 | 1007.2 |
| 20260505182325 | 13 | 263 | 8.0 | 12.9 | 0.00 | 0.00 | 0.00 | 85 | 1007.4 |
| 20260505181822 | 13 | 346 | 9.7 | 14.5 | 0.00 | 0.00 | 0.00 | 85 | 1007.1 |
| 20260505181319 | 13 | 35 | 8.0 | 12.9 | 0.00 | 0.00 | 0.00 | 86 | 1006.9 |
| 20260505180816 | 13 | 159 | 6.4 | 6.4 | 0.00 | 0.00 | 0.00 | 86 | 1006.7 |
| 20260505180312 | 13 | 325 | 9.7 | 14.5 | 0.00 | 0.00 | 0.00 | 86 | 1006.9 |
| 20260505175809 | 13 | 41 | 4.8 | 6.4 | 0.00 | 0.00 | 0.00 | 87 | 1007.0 |
| 20260505175306 | 13 | 44 | 9.7 | 14.5 | 0.00 | 0.00 | 0.00 | 86 | 1006.8 |
| 20260505174802 | 13 | 324 | 9.7 | 16.1 | 0.00 | 0.00 | 0.00 | 86 | 1006.7 |
| 20260505174259 | 13 | 238 | 3.2 | 4.8 | 0.00 | 0.00 | 0.00 | 86 | 1006.7 |
| 20260505173755 | 13 | 271 | 6.4 | 9.7 | 0.00 | 0.00 | 0.00 | 86 | 1006.7 |
| 20260505173252 | 13 | 45 | 9.7 | 16.1 | 0.00 | 0.00 | 0.00 | 86 | 1006.4 |
| 20260505172749 | 13 | 353 | 9.7 | 14.5 | 0.00 | 0.00 | 0.00 | 85 | 1006.4 |
| 20260505172246 | 13 | 4 | 8.0 | 11.3 | 0.00 | 0.00 | 0.00 | 86 | 1006.3 |
| 20260505171746 | 13 | 249 | 3.2 | 3.2 | 0.00 | 0.00 | 0.00 | 87 | 1006.6 |
| 20260505171243 | 13 | 256 | 3.2 | 4.8 | 0.00 | 0.00 | 0.00 | 87 | 1006.3 |
| 20260505170739 | 13 | 305 | 4.8 | 9.7 | 0.00 | 0.00 | 0.00 | 88 | 1006.0 |
| 20260505170237 | 13 | 48 | 17.7 | 22.5 | 0.00 | 0.00 | 0.00 | 87 | 1005.9 |
| 20260505165732 | 13 | 65 | 14.5 | 22.5 | 0.00 | 0.00 | 0.00 | 88 | 1006.1 |
| 20260505165228 | 13 | 54 | 12.9 | 16.1 | 0.00 | 0.00 | 0.00 | 88 | 1005.8 |
| 20260505164724 | 13 | 237 | 1.6 | 3.2 | 0.00 | 0.00 | 0.00 | 88 | 1005.7 |
| 20260505164221 | 13 | 345 | 11.3 | 24.1 | 0.00 | 0.00 | 0.00 | 88 | 1005.7 |
| 20260505163719 | 13 | 310 | 9.7 | 20.9 | 0.00 | 0.00 | 0.00 | 88 | 1005.8 |
| 20260505163217 | 14 | 6 | 12.9 | 20.9 | 0.00 | 0.00 | 0.00 | 88 | 1005.5 |
| 20260505162714 | 14 | 245 | 6.4 | 11.3 | 0.00 | 0.00 | 0.00 | 87 | 1005.1 |
| 20260505162211 | 15 | 302 | 4.8 | 11.3 | 0.00 | 0.00 | 0.00 | 87 | 1004.7 |
| 20260505161708 | 15 | 277 | 8.0 | 9.7 | 0.00 | 0.00 | 0.00 | 87 | 1004.6 |
| 20260505161206 | 15 | 331 | 8.0 | 9.7 | 0.00 | 0.00 | 0.00 | 88 | 1004.0 |
| 20260505160703 | 16 | 39 | 11.3 | 14.5 | 0.00 | 0.00 | 0.00 | 87 | 1003.9 |
| 20260505160201 | 16 | 280 | 6.4 | 9.7 | 0.00 | 0.00 | 0.00 | 88 | 1003.7 |
| 20260505153140 | 20 | 327 | 3.2 | 4.8 | 0.00 | 0.00 | 0.00 | 87 | 1003.3 |
| 20260505152637 | 20 | 229 | 1.6 | 1.6 | 0.00 | 0.00 | 0.00 | 89 | 1003.1 |
| 20260505152132 | 20 | 31 | 6.4 | 9.7 | 0.00 | 0.00 | 0.00 | 88 | 1002.9 |
| 20260505151628 | 20 | 109 | 6.4 | 6.4 | 0.00 | 0.00 | 0.00 | 88 | 1002.7 |
| 20260505151126 | 20 | 231 | 3.2 | 3.2 | 0.00 | 0.00 | 0.00 | 89 | 1002.9 |
| 20260505150621 | 20 | 243 | 1.6 | 1.6 | 0.00 | 0.00 | 0.00 | 88 | 1002.7 |
| 20260505150119 | 20 | 137 | 6.4 | 6.4 | 0.00 | 0.00 | 0.00 | 87 | 1002.6 |
| 20260505140547 | 20 | 188 | 3.2 | 4.8 | 0.00 | 0.00 | 0.00 | 88 | 1001.8 |
| 20260505125000 | 20 | 196 | 0.0 | 1.6 | 0.00 | 0.00 | 0.00 | 87 | 1001.1 |
| 20260505124457 | 20 | 195 | 1.6 | 1.6 | 0.00 | 0.00 | 0.00 | 86 | 1001.4 |
| 20260505123953 | 20 | 202 | 1.6 | 1.6 | 0.00 | 0.00 | 0.00 | 86 | 1001.3 |
| 20260505123450 | 20 | 203 | 1.6 | 1.6 | 0.00 | 0.00 | 0.00 | 85 | 1001.2 |
| 20260505122946 | 20 | 203 | 1.6 | 1.6 | 0.00 | 0.00 | 0.00 | 86 | 1001.2 |
| 20260505122443 | 20 | 204 | 0.0 | 0.0 | 0.00 | 0.00 | 0.00 | 85 | 1001.1 |
| 20260505121940 | 20 | 189 | 1.6 | 3.2 | 0.00 | 0.00 | 0.00 | 85 | 1001.0 |
| 20260505121437 | 20 | 196 | 1.6 | 1.6 | 0.00 | 0.00 | 0.00 | 84 | 1001.1 |
| 20260505120933 | 19 | 195 | 1.6 | 1.6 | 0.00 | 0.00 | 0.00 | 86 | 1001.1 |
| 20260505120430 | 20 | 217 | 1.6 | 1.6 | 0.00 | 0.00 | 0.00 | 85 | 1001.0 |
| 20260505115929 | 20 | 196 | 1.6 | 1.6 | 0.00 | 0.00 | 0.00 | 84 | 1000.6 |
| 20260505115425 | 20 | 187 | 3.2 | 3.2 | 0.00 | 0.00 | 0.00 | 84 | 1000.8 |
| 20260505114923 | 20 | 208 | 0.0 | 0.0 | 0.00 | 0.00 | 0.00 | 83 | 1000.7 |
| 20260505114419 | 20 | 201 | 1.6 | 3.2 | 0.00 | 0.00 | 0.00 | 83 | 1000.4 |
| 20260505113915 | 20 | 211 | 1.6 | 1.6 | 0.00 | 0.00 | 0.00 | 81 | 1000.2 |
| 20260505113413 | 21 | 222 | 1.6 | 1.6 | 0.00 | 0.00 | 0.00 | 80 | 1000.1 |
| 20260505112908 | 21 | 207 | 3.2 | 4.8 | 0.00 | 0.00 | 0.00 | 80 | 999.6 |
| 20260505112406 | 21 | 220 | 4.8 | 9.7 | 0.00 | 0.00 | 0.00 | 79 | 999.5 |
| 20260505111902 | 21 | 203 | 8.0 | 14.5 | 0.00 | 0.00 | 0.00 | 80 | 999.6 |
| 20260505111357 | 21 | 201 | 6.4 | 12.9 | 0.00 | 0.00 | 0.00 | 80 | 999.5 |
| 20260505110853 | 21 | 211 | 3.2 | 3.2 | 0.00 | 0.00 | 0.00 | 80 | 999.3 |
| 20260505110351 | 21 | 211 | 0.0 | 1.6 | 0.00 | 0.00 | 0.00 | 80 | 999.7 |
| 20260505101821 | 21 | 242 | 11.3 | 16.1 | 0.00 | 0.00 | 0.00 | 78 | 998.7 |
| 20260505101316 | 21 | 211 | 8.0 | 12.9 | 0.00 | 0.00 | 0.00 | 78 | 998.7 |
| 20260505100812 | 21 | 235 | 12.9 | 16.1 | 0.00 | 0.00 | 0.00 | 78 | 998.9 |
| 20260505100309 | 21 | 212 | 1.6 | 3.2 | 0.00 | 0.00 | 0.00 | 78 | 998.9 |
| 20260505095805 | 21 | 215 | 6.4 | 9.7 | 0.00 | 0.00 | 0.00 | 78 | 998.9 |
| 20260505095304 | 21 | 207 | 9.7 | 12.9 | 0.00 | 0.00 | 0.00 | 78 | 998.7 |
| 20260505094758 | 21 | 250 | 9.7 | 12.9 | 0.00 | 0.00 | 0.00 | 78 | 998.7 |
| 20260505094255 | 22 | 217 | 6.4 | 11.3 | 0.00 | 0.00 | 0.00 | 77 | 998.7 |
| 20260505093750 | 21 | 211 | 9.7 | 12.9 | 0.00 | 0.00 | 0.00 | 77 | 998.9 |
| 20260505093249 | 22 | 192 | 8.0 | 11.3 | 0.00 | 0.00 | 0.00 | 78 | 998.7 |
| 20260505092745 | 22 | 193 | 6.4 | 12.9 | 0.00 | 0.00 | 0.00 | 77 | 998.5 |